FENGYUN 4A

Last updated on Mon Oct 14 2024 00:02:17 GMT+0000 (Coordinated Universal Time)

1 41882U 16077A 24287.52017247 -.00000198 00000+0 00000+0 0 9992 2 41882 0.7537 85.7555 0007900 342.6206 228.0141 1.00264045 28797
UTC large
Height (km)
Speed (km/s)
/
Latitude / Longitude
Inclination (degrees)
Orbital Period (minutes)
Azimuth
Elevation
Range (km)
Doppler Factor

Next 0 passes for location: London (51.5072 / 0.1276)

Sorry there are no passes over London.